Полуночное

Россия / Свердловская область     60°52′03″N   60°25′31″E
темп.,
°C
ветер,
м/с
пор.,
м/с
влажн.,
%
обл.,
%
осадки,
мм/ч
давл.,
гПа
погр.,
м
27 октября, ср
ср2723:00−5зюз24795 0.0 1015110
02:00−6з11835 0.0 101517
05:00−6юз118511 0.0 101611
08:00−10юз009861 0.0 101611
11:00−5ююв1272100 0.0 1015218
14:00−3ююв3568100 0.0 1014469
17:00−4ююв2695100 0.1 1013352
20:00−3ююв1798100 1.0 1010304
28 октября, чт
чт2823:00−2ююв2699100 1.1 1007298
02:00−2ю2698100 0.0 1004256
05:00−1ю2798100 0.8 1001270
08:00−1ю2797100 0.3 998288
11:00+1ююз2686100 0.3 997275
14:00+3юз3876100 0.0 996813
17:00+2зюз51180100 0.0 9961008
20:00+2з51178100 0.0 9961160
29 октября, пт
пт2923:00−4з612695 0.1 9991062
02:00−5зсз6156465 0.0 10021314
05:00−5сз81661100 0.0 10051499
08:00−6сз716615 0.0 10081378
11:00−4сз715575 0.0 10121465
14:00−3сз715554 0.0 10151478
17:00−5сз614625 0.0 10181214
20:00−6зсз511675 0.0 1020907
30 октября, сб
сб3023:00−7з26785 0.0 1020185
02:00−7зюз287766 0.0 1020234
05:00−5ююз2674100 0.0 1018321
08:00−5ю3885100 0.4 1014474
11:00−5ю3893100 1.7 1011439
14:00−3ю3584100 0.9 1008483
17:00−4юв1194100 1.1 100739
20:00−4ссз129691 0.0 100945
31 октября, вс
вс3123:00−5ссз279695 0.0 1013212
02:00−6ссз159783 0.0 1016155
05:00−8сз119895 0.0 101910
08:00−9юз119973 0.0 102110
11:00−4ю128788 0.0 1021158
14:000ю137692 0.0 1020242
17:00−1ю2492100 0.0 101985
20:00−1ю2789100 0.0 1017158